Location: Unspecified
(0.0000°N, 0.0000°E)
Time: 07:52:54
(UTC+01:00)

Cosmos 1953 Rocket - Visible Passes

Search period start: 21 December 2014 00:00
Search period end: 31 December 2014 00:00
Orbit: 606 x 636 km, 82.5° (Epoch: 20 December)

Date Brightness Start Highest point End Pass type
(mag) Time Alt. Az. Time Alt. Az. Time Alt. Az.
21 Dec 5.8 04:29:22 21° E 04:29:22 21° E 04:32:27 10° SE visible
21 Dec 5.3 06:06:37 14° W 06:06:44 14° W 06:08:55 10° SW visible
22 Dec 4.7 04:48:04 41° SE 04:48:04 41° SE 04:51:15 10° SSE visible
23 Dec 4.6 05:06:43 34° SSW 05:06:43 34° SSW 05:09:16 10° S visible
24 Dec 5.5 05:25:19 17° SW 05:25:19 17° SW 05:26:33 10° SSW visible
25 Dec 6.7 04:06:37 11° SE 04:06:37 11° SE 04:06:45 10° SE visible
26 Dec 6.4 04:25:07 12° SSE 04:25:07 12° SSE 04:25:23 10° SSE visible
